Terminal Aerodrome Forecast
Issued by NWS Charleston, WV

Current Version | Previous Version | Graphics & Text | Print | Product List | Glossary On
Versions: 1 2 3 4 5 6 7 8 9 10 11 12 13 14 15 16 17 18 19 20 21 22 23 24 25 26 27
000
FTUS41 KRLX 260600 AAA
TAFBKW
TAF AMD
KBKW 260613Z 2606/2706 VRB03KT 2SM -SN BR OVC025
     FM261100 VRB03KT 4SM -SN BR OVC015
     FM261600 VRB03KT P6SM OVC008
     FM262000 31005KT 6SM BR OVC010
     FM270000 VRB03KT 2SM -SHSN BR BKN008=

USA.gov is the U.S. government's official web portal to all federal, state and local government web resources and services.